Weather History for Lebanon, NH

Change the Weather History Date:

Wednesday, April 24, 2013

  Actual Average Record
Temperature  
Mean Temperature 57 °F -  
Max Temperature 75 °F 58 °F 84 °F (2001)
Min Temperature 39 °F 36 °F 20 °F (1930)
Degree Days  
Heating Degree Days 8    
Growing Degree Days 7 (Base 50)    
Moisture  
Dew Point 38 °F    
Average Humidity 55    
Maximum Humidity 83    
Minimum Humidity 22    
Precipitation  
Precipitation 0.00 in - - ()
Sea Level Pressure  
Sea Level Pressure 29.89 in    
Wind  
Wind Speed 3 mph (South)    
Max Wind Speed 17 mph    
Max Gust Speed 24 mph    
Visibility 10 miles    
Events      
Averages and records for this station are not official NWS values.
T = Trace of Precipitation, MM = Missing Value Source: NWS Daily Summary

Daily Weather History Graph

Daily Weather History Graph

Search for Another Location

Airport:

Trip Planner

Search our weather history database for the weather conditions in past years. The results will help you decide how hot, cold, wet, or windy it might be!

Date:

Astronomy

Apr. 24, 2013 Rise Set
Actual Time 5:51 AM EDT 7:43 PM EDT
Civil Twilight 5:21 AM EDT 8:14 PM EDT
Nautical Twilight 4:43 AM EDT 8:52 PM EDT
Astronomical Twilight 4:02 AM EDT 9:33 PM EDT
Moon 6:42 PM EDT (4/24) 4:55 AM EDT (4/24)
Length of Visible Light 14h 53m
Length of Day
13h 51m
Waxing Gibbous, 98% of the Moon is Illuminated
Apr 24
Waxing Gibbous
Apr 25
Full
May 2
Last Quarter
May 9
New
May 18
First Quarter

Hourly Weather History & Observations

Time (EDT) Temp. Windchill Dew Point Humidity Pressure Visibility Wind Dir Wind Speed Gust Speed Precip Events Conditions
12:53 AM 39.9 °F - 35.1 °F 83% 30.14 in 10.0 mi Calm Calm - N/A   Overcast
1:53 AM 41.0 °F - 34.0 °F 76% 30.12 in 10.0 mi Calm Calm - N/A   Overcast
2:53 AM 41.0 °F - 35.1 °F 79% 30.10 in 10.0 mi Calm Calm - N/A   Overcast
3:53 AM 41.0 °F - 35.1 °F 79% 30.07 in 10.0 mi Calm Calm - N/A   Overcast
4:53 AM 41.0 °F - 36.0 °F 82% 30.07 in 10.0 mi Calm Calm - N/A   Overcast
6:17 AM 41.0 °F 39.0 °F 35.6 °F 81% 30.03 in 10.0 mi NNW 3.5 mph - N/A   Overcast
6:53 AM 41.0 °F 39.0 °F 34.0 °F 76% 30.06 in 10.0 mi North 3.5 mph - N/A   Overcast
7:53 AM 43.0 °F - 35.1 °F 74% 30.06 in 10.0 mi Calm Calm - N/A   Overcast
8:53 AM 45.0 °F - 37.0 °F 74% 30.02 in 10.0 mi Calm Calm - N/A   Overcast
9:43 AM 48.2 °F - 37.4 °F 66% 29.99 in 10.0 mi Calm Calm - N/A   Partly Cloudy
9:53 AM 48.0 °F - 37.9 °F 68% 29.99 in 10.0 mi SSW 3.5 mph - N/A   Partly Cloudy
10:53 AM 54.0 °F - 39.0 °F 57% 29.95 in 10.0 mi Calm Calm - N/A   Clear
11:53 AM 60.1 °F - 41.0 °F 49% 29.91 in 10.0 mi Calm Calm - N/A   Clear
12:53 PM 64.9 °F - 39.9 °F 40% 29.84 in 10.0 mi Variable 4.6 mph - N/A   Clear
1:53 PM 70.0 °F - 36.0 °F 29% 29.79 in 10.0 mi Variable 3.5 mph - N/A   Clear
2:53 PM 73.0 °F - 36.0 °F 26% 29.75 in 10.0 mi South 9.2 mph - N/A   Clear
3:53 PM 75.0 °F - 34.0 °F 22% 29.73 in 10.0 mi South 12.7 mph 19.6 mph N/A   Clear
4:53 PM 75.0 °F - 39.0 °F 27% 29.72 in 10.0 mi South 10.4 mph - N/A   Clear
5:53 PM 73.9 °F - 39.0 °F 28% 29.70 in 10.0 mi South 10.4 mph 18.4 mph N/A   Mostly Cloudy
6:53 PM 70.0 °F - 41.0 °F 35% 29.70 in 10.0 mi South 5.8 mph - N/A   Overcast
7:53 PM 69.1 °F - 41.0 °F 36% 29.70 in 10.0 mi South 8.1 mph - N/A   Overcast
8:53 PM 64.0 °F - 41.0 °F 43% 29.70 in 10.0 mi South 8.1 mph - N/A   Clear
9:53 PM 66.0 °F - 43.0 °F 43% 29.71 in 10.0 mi South 15.0 mph - N/A   Scattered Clouds
10:53 PM 64.0 °F - 44.1 °F 48% 29.70 in 10.0 mi South 17.3 mph 24.2 mph N/A   Overcast
11:53 PM 62.1 °F - 45.0 °F 53% 29.68 in 10.0 mi South 12.7 mph 24.2 mph N/A   Overcast